,,Stat5,,Stat1,,Stat2,,Stat3,,Stat4,,Wind1,,Wind1,
time,status,PA1M_AVG,status,PR1M_SUM,status,RH1M_AVG,status,SR1M_AVG,status,TA1M_AVG,status,W1dAve1m,status,W1sAve1m,
2002-05-14, 00:00:00,VALID,919.807,VALID,0,VALID,98.0738,VALID,-0.0509425,VALID,20.7812,VALID,139,VALID,0.773037,
2002-05-14, 00:01:00,VALID,919.807,VALID,0,VALID,98.0852,VALID,-0.0679233,VALID,20.7553,VALID,136,VALID,0.851362,
2002-05-14, 00:02:00,VALID,919.788,VALID,0,VALID,98.2632,VALID,-0.0849042,VALID,20.7583,VALID,129,VALID,0.754825,
2002-05-14, 00:03:00,VALID,919.772,VALID,0,VALID,98.2874,VALID,-0.0849042,VALID,20.7513,VALID,132,VALID,0.626234,
2002-05-14, 00:04:00,VALID,919.764,VALID,0,VALID,98.4018,VALID,-0.0169808,VALID,20.7814,VALID,121,VALID,0.802951,
2002-05-14, 00:05:00,VALID,919.746,VALID,0,VALID,98.4438,VALID,-0.0679233,VALID,20.7938,VALID,124,VALID,0.424045,
2002-05-14, 00:06:00,VALID,919.759,VALID,0,VALID,98.4247,VALID,-0.0679233,VALID,20.7973,VALID,150,VALID,0.549409,
2002-05-14, 00:07:00,VALID,919.755,VALID,0,VALID,98.4298,VALID,-0.0509425,VALID,20.8038,VALID,149,VALID,0.389186,
2002-05-14, 00:08:00,VALID,919.76,VALID,0,VALID,98.3942,VALID,-0.0849042,VALID,20.7906,VALID,149,VALID,0.288857,
2002-05-14, 00:09:00,VALID,919.761,VALID,0,VALID,98.4031,VALID,0.0169808,VALID,20.7896,VALID,149,VALID,0.206081,
2002-05-14, 00:10:00,VALID,919.762,VALID,0,VALID,98.3281,VALID,0.0169808,VALID,20.7764,VALID,149,VALID,0.110978,
2002-05-14, 00:11:00,VALID,919.755,VALID,0,VALID,98.2607,VALID,0,VALID,20.7667,VALID,149,VALID,0,
2002-05-14, 00:12:00,VALID,919.755,VALID,0,VALID,98.1933,VALID,0,VALID,20.754,VALID,195,VALID,0.219351,
2002-05-14, 00:13:00,VALID,919.758,VALID,0,VALID,98.2404,VALID,0,VALID,20.7513,VALID,228,VALID,0.639423,
2002-05-14, 00:14:00,VALID,919.743,VALID,0,VALID,98.3535,VALID,0,VALID,20.7729,VALID,211,VALID,0.541066,
2002-05-14, 00:15:00,VALID,919.73,VALID,0,VALID,98.4247,VALID,0,VALID,20.8378,VALID,186,VALID,0.582721,
2002-05-14, 00:16:00,VALID,919.725,VALID,0,VALID,98.2989,VALID,0.0339617,VALID,20.8181,VALID,181,VALID,0.733347,
2002-05-14, 00:17:00,VALID,919.686,VALID,0,VALID,98.2696,VALID,0.0169808,VALID,20.809,VALID,181,VALID,0.627387,
2002-05-14, 00:18:00,VALID,919.656,VALID,0,VALID,98.1946,VALID,0.0169808,VALID,20.7731,VALID,181,VALID,0.482686,
2002-05-14, 00:19:00,VALID,919.624,VALID,0,VALID,98.1246,VALID,0.0169808,VALID,20.7276,VALID,165,VALID,0.392525,
2002-05-14, 00:20:00,VALID,919.611,VALID,0,VALID,98.0572,VALID,0,VALID,20.6859,VALID,149,VALID,0.320518,
2002-05-14, 00:21:00,VALID,919.597,VALID,0,VALID,97.9593,VALID,0.0339617,VALID,20.6439,VALID,134,VALID,0.216694,
2002-05-14, 00:22:00,VALID,919.586,VALID,0,VALID,97.8144,VALID,0.0339617,VALID,20.5658,VALID,110,VALID,0.369721,
2002-05-14, 00:23:00,VALID,919.569,VALID,0,VALID,97.967,VALID,0,VALID,20.5214,VALID,117,VALID,0.513221,
2002-05-14, 00:24:00,VALID,919.571,VALID,0,VALID,98.3421,VALID,0.0509425,VALID,20.5596,VALID,119,VALID,0.511719,
2002-05-14, 00:25:00,VALID,919.561,VALID,0,VALID,98.4934,VALID,0.0339617,VALID,20.6051,VALID,119,VALID,0.296875,
2002-05-14, 00:26:00,VALID,919.575,VALID,0,VALID,98.5494,VALID,0.0509425,VALID,20.6407,VALID,119,VALID,0.264223,
2002-05-14, 00:27:00,VALID,919.568,VALID,0,VALID,98.5862,VALID,0,VALID,20.6902,VALID,119,VALID,0.208333,
2002-05-14, 00:28:00,VALID,919.558,VALID,0,VALID,98.398,VALID,0.0509425,VALID,20.6608,VALID,115,VALID,0.167509,
2002-05-14, 00:29:00,VALID,919.545,VALID,0,VALID,97.6974,VALID,0,VALID,20.4572,VALID,75,VALID,0.518503,
2002-05-14, 00:30:00,VALID,919.541,VALID,0,VALID,97.2828,VALID,0,VALID,20.2539,VALID,68,VALID,0.731554,
2002-05-14, 00:31:00,VALID,919.504,VALID,0,VALID,97.5257,VALID,0,VALID,20.1821,VALID,67,VALID,0.901933,
2002-05-14, 00:32:00,VALID,919.498,VALID,0,VALID,98.0763,VALID,0.0169808,VALID,20.2728,VALID,66,VALID,0.857686,
2002-05-14, 00:33:00,VALID,919.473,VALID,0,VALID,98.2009,VALID,0.0169808,VALID,20.3175,VALID,66,VALID,0.877262,
2002-05-14, 00:34:00,VALID,919.455,VALID,0,VALID,98.3548,VALID,0.0169808,VALID,20.3566,VALID,69,VALID,0.79523,
2002-05-14, 00:35:00,VALID,919.448,VALID,0,VALID,98.4336,VALID,0,VALID,20.3891,VALID,76,VALID,0.656461,
2002-05-14, 00:36:00,VALID,919.44,VALID,0,VALID,98.749,VALID,0.0169808,VALID,20.4726,VALID,85,VALID,0.785457,
2002-05-14, 00:37:00,VALID,919.428,VALID,0,VALID,98.8037,VALID,0,VALID,20.5768,VALID,110,VALID,0.672903,
2002-05-14, 00:38:00,VALID,919.409,VALID,0,VALID,98.796,VALID,0,VALID,20.6215,VALID,111,VALID,0.808093,
2002-05-14, 00:39:00,VALID,919.368,VALID,0,VALID,98.6714,VALID,0,VALID,20.6479,VALID,96,VALID,0.820313,
2002-05-14, 00:40:00,VALID,919.336,VALID,0,VALID,98.4298,VALID,0,VALID,20.5857,VALID,80,VALID,0.853966,
2002-05-14, 00:41:00,VALID,919.309,VALID,0,VALID,98.2989,VALID,0,VALID,20.5117,VALID,64,VALID,0.986213,
2002-05-14, 00:42:00,VALID,919.282,VALID,0,VALID,98.089,VALID,0,VALID,20.4282,VALID,57,VALID,0.889597,
2002-05-14, 00:43:00,VALID,919.265,VALID,0,VALID,98.0102,VALID,0,VALID,20.3864,VALID,56,VALID,0.825521,
2002-05-14, 00:44:00,VALID,919.229,VALID,0,VALID,98,VALID,0,VALID,20.3668,VALID,62,VALID,0.906039,
2002-05-14, 00:45:00,VALID,919.182,VALID,0,VALID,97.9453,VALID,0,VALID,20.3603,VALID,66,VALID,0.984375,
2002-05-14, 00:46:00,VALID,919.135,VALID,0,VALID,98.2111,VALID,0,VALID,20.3859,VALID,73,VALID,1.02303,
2002-05-14, 00:47:00,VALID,919.122,VALID,0,VALID,98.4692,VALID,0,VALID,20.4605,VALID,81,VALID,1.01049,
2002-05-14, 00:48:00,VALID,919.114,VALID,0,VALID,98.4731,VALID,0.0169808,VALID,20.5181,VALID,100,VALID,0.986275,
2002-05-14, 00:49:00,VALID,919.125,VALID,0,VALID,98.4464,VALID,0.0169808,VALID,20.534,VALID,103,VALID,0.916867,
2002-05-14, 00:50:00,VALID,919.124,VALID,0,VALID,98.3395,VALID,0,VALID,20.538,VALID,110,VALID,0.738487,
2002-05-14, 00:51:00,VALID,919.132,VALID,0,VALID,98.2518,VALID,0.0339617,VALID,20.5251,VALID,102,VALID,0.708133,
2002-05-14, 00:52:00,VALID,919.132,VALID,0,VALID,98.014,VALID,0,VALID,20.4861,VALID,102,VALID,0.596755,
2002-05-14, 00:53:00,VALID,919.133,VALID,0,VALID,97.9682,VALID,0.0169808,VALID,20.4341,VALID,119,VALID,0.600361,
2002-05-14, 00:54:00,VALID,919.127,VALID,0,VALID,97.8373,VALID,-0.0679233,VALID,20.377,VALID,136,VALID,0.709789,
2002-05-14, 00:55:00,VALID,919.123,VALID,0,VALID,97.9975,VALID,-0.0849042,VALID,20.3579,VALID,115,VALID,0.842516,
2002-05-14, 00:56:00,VALID,919.116,VALID,0,VALID,98.2225,VALID,-0.0849042,VALID,20.374,VALID,110,VALID,1.11523,
2002-05-14, 00:57:00,VALID,919.083,VALID,0,VALID,98.3955,VALID,-0.0679233,VALID,20.4098,VALID,109,VALID,1.1875,
2002-05-14, 00:58:00,VALID,919.061,VALID,0,VALID,98.4921,VALID,-0.0849042,VALID,20.4292,VALID,105,VALID,1.20397,
2002-05-14, 00:59:00,VALID,919.022,VALID,0,VALID,98.4362,VALID,-0.0679233,VALID,20.423,VALID,102,VALID,0.930921,
2002-05-14, 01:00:00,VALID,919.012,VALID,0,VALID,98.4108,VALID,-0.0679233,VALID,20.3772,VALID,111,VALID,0.902755,
2002-05-14, 01:01:00,VALID,918.995,VALID,0,VALID,98.4718,VALID,-0.0849042,VALID,20.339,VALID,115,VALID,0.634502,
2002-05-14, 01:02:00,VALID,918.987,VALID,0,VALID,98.5608,VALID,-0.101885,VALID,20.3454,VALID,125,VALID,0.578726,
2002-05-14, 01:03:00,VALID,918.978,VALID,0,VALID,98.5697,VALID,-0.101885,VALID,20.3193,VALID,127,VALID,0.658512,
2002-05-14, 01:04:00,VALID,918.983,VALID,0,VALID,98.5506,VALID,-0.0509425,VALID,20.2932,VALID,128,VALID,0.558093,
2002-05-14, 01:05:00,VALID,918.961,VALID,0,VALID,98.6193,VALID,-0.0339617,VALID,20.2704,VALID,116,VALID,0.595753,
2002-05-14, 01:06:00,VALID,918.961,VALID,0,VALID,98.8634,VALID,-0.0679233,VALID,20.3387,VALID,116,VALID,1.01923,
2002-05-14, 01:07:00,VALID,918.942,VALID,0,VALID,98.8673,VALID,-0.0679233,VALID,20.384,VALID,108,VALID,1.14384,
2002-05-14, 01:08:00,VALID,918.917,VALID,0,VALID,98.8965,VALID,-0.101885,VALID,20.4168,VALID,113,VALID,1.16077,
2002-05-14, 01:09:00,VALID,918.911,VALID,0,VALID,98.913,VALID,0.0169808,VALID,20.4468,VALID,112,VALID,0.97678,
2002-05-14, 01:10:00,VALID,918.92,VALID,0,VALID,98.8113,VALID,0.0169808,VALID,20.4177,VALID,128,VALID,0.640203,
2002-05-14, 01:11:00,VALID,918.921,VALID,0,VALID,98.8316,VALID,0.0169808,VALID,20.4277,VALID,115,VALID,1.04814,
2002-05-14, 01:12:00,VALID,918.926,VALID,0,VALID,98.8291,VALID,0.0339617,VALID,20.4368,VALID,123,VALID,0.930099,
2002-05-14, 01:13:00,VALID,918.903,VALID,0,VALID,98.7617,VALID,0.0679233,VALID,20.4438,VALID,115,VALID,0.910773,
2002-05-14, 01:14:00,VALID,918.883,VALID,0,VALID,98.7426,VALID,0.0339617,VALID,20.4207,VALID,125,VALID,1.06461,
2002-05-14, 01:15:00,VALID,918.871,VALID,0,VALID,98.7401,VALID,0.0339617,VALID,20.4371,VALID,125,VALID,1.12861,
2002-05-14, 01:16:00,VALID,918.88,VALID,0,VALID,98.7197,VALID,0.0169808,VALID,20.447,VALID,125,VALID,0.908306,
2002-05-14, 01:17:00,VALID,918.903,VALID,0,VALID,98.6358,VALID,0,VALID,20.4441,VALID,121,VALID,0.713415,
2002-05-14, 01:18:00,VALID,918.903,VALID,0,VALID,98.5862,VALID,0,VALID,20.4339,VALID,121,VALID,0.591546,
2002-05-14, 01:19:00,VALID,918.905,VALID,0,VALID,98.5417,VALID,0,VALID,20.4244,VALID,124,VALID,0.645232,
2002-05-14, 01:20:00,VALID,918.899,VALID,0,VALID,98.3713,VALID,0.0339617,VALID,20.3789,VALID,115,VALID,0.72886,
2002-05-14, 01:21:00,VALID,918.887,VALID,0,VALID,98.4464,VALID,0.0169808,VALID,20.3598,VALID,111,VALID,0.854235,
2002-05-14, 01:22:00,VALID,918.869,VALID,0,VALID,98.5811,VALID,0,VALID,20.3754,VALID,115,VALID,1.19965,
2002-05-14, 01:23:00,VALID,918.85,VALID,0,VALID,98.6053,VALID,0.0339617,VALID,20.4018,VALID,112,VALID,1.14289,
2002-05-14, 01:24:00,VALID,918.837,VALID,0,VALID,98.5036,VALID,0,VALID,20.3916,VALID,105,VALID,1.04878,
2002-05-14, 01:25:00,VALID,918.805,VALID,0,VALID,98.4718,VALID,0.0169808,VALID,20.3722,VALID,95,VALID,0.879729,
2002-05-14, 01:26:00,VALID,918.798,VALID,0,VALID,98.5926,VALID,0.0509425,VALID,20.3655,VALID,106,VALID,0.984786,
2002-05-14, 01:27:00,VALID,918.758,VALID,0,VALID,98.557,VALID,0.0849042,VALID,20.3851,VALID,111,VALID,0.859797,
2002-05-14, 01:28:00,VALID,918.753,VALID,0,VALID,98.5074,VALID,0.0339617,VALID,20.3595,VALID,111,VALID,0.831931,
2002-05-14, 01:29:00,VALID,918.747,VALID,0,VALID,98.5048,VALID,0.0849042,VALID,20.3332,VALID,109,VALID,0.895354,
2002-05-14, 01:30:00,VALID,918.733,VALID,0,VALID,98.5684,VALID,0.0339617,VALID,20.3203,VALID,110,VALID,0.753005,
2002-05-14, 01:31:00,VALID,918.74,VALID,0,VALID,98.5227,VALID,0.0679233,VALID,20.3081,VALID,111,VALID,0.907252,
2002-05-14, 01:32:00,VALID,918.746,VALID,0,VALID,98.5722,VALID,0.0169808,VALID,20.3081,VALID,118,VALID,0.907652,
2002-05-14, 01:33:00,VALID,918.761,VALID,0,VALID,98.557,VALID,0.0849042,VALID,20.2885,VALID,123,VALID,0.807445,
2002-05-14, 01:34:00,VALID,918.797,VALID,0,VALID,98.5061,VALID,0.0339617,VALID,20.2494,VALID,122,VALID,0.834498,
2002-05-14, 01:35:00,VALID,918.811,VALID,0,VALID,98.6956,VALID,0.0339617,VALID,20.2497,VALID,115,VALID,1.30404,
2002-05-14, 01:36:00,VALID,918.807,VALID,0,VALID,98.7922,VALID,0.0509425,VALID,20.2984,VALID,100,VALID,1.33193,
2002-05-14, 01:37:00,VALID,918.79,VALID,0,VALID,98.8126,VALID,0.0169808,VALID,20.3235,VALID,96,VALID,1.21474,
2002-05-14, 01:38:00,VALID,918.776,VALID,0,VALID,98.7274,VALID,0.0849042,VALID,20.3493,VALID,100,VALID,1.11081,
2002-05-14, 01:39:00,VALID,918.796,VALID,0,VALID,98.6816,VALID,-0.0509425,VALID,20.3288,VALID,104,VALID,1.02529,
2002-05-14, 01:40:00,VALID,918.8,VALID,0,VALID,98.6587,VALID,-0.101885,VALID,20.3191,VALID,109,VALID,0.869721,
2002-05-14, 01:41:00,VALID,918.811,VALID,0,VALID,98.6778,VALID,-0.0679233,VALID,20.3385,VALID,117,VALID,0.78766,
2002-05-14, 01:42:00,VALID,918.793,VALID,0,VALID,98.5188,VALID,-0.0509425,VALID,20.3158,VALID,121,VALID,0.843339,
2002-05-14, 01:43:00,VALID,918.78,VALID,0,VALID,98.4591,VALID,-0.0849042,VALID,20.2701,VALID,136,VALID,0.745192,
2002-05-14, 01:44:00,VALID,918.761,VALID,0,VALID,98.468,VALID,-0.0849042,VALID,20.2442,VALID,141,VALID,0.901442,
2002-05-14, 01:45:00,VALID,918.754,VALID,0,VALID,98.5519,VALID,-0.0509425,VALID,20.2641,VALID,125,VALID,0.814704,
2002-05-14, 01:46:00,VALID,918.751,VALID,0,VALID,98.6053,VALID,-0.0509425,VALID,20.2835,VALID,126,VALID,0.904642,
2002-05-14, 01:47:00,VALID,918.746,VALID,0,VALID,98.6918,VALID,-0.0849042,VALID,20.3193,VALID,119,VALID,1.00247,
2002-05-14, 01:48:00,VALID,918.726,VALID,0,VALID,98.5939,VALID,-0.0509425,VALID,20.3422,VALID,106,VALID,1.06011,
2002-05-14, 01:49:00,VALID,918.679,VALID,0,VALID,98.6193,VALID,-0.101885,VALID,20.3514,VALID,107,VALID,1.18606,
2002-05-14, 01:50:00,VALID,918.644,VALID,0,VALID,98.6524,VALID,-0.0509425,VALID,20.377,VALID,111,VALID,1.25063,
2002-05-14, 01:51:00,VALID,918.618,VALID,0,VALID,98.5926,VALID,-0.0509425,VALID,20.3999,VALID,120,VALID,1.2058,
2002-05-14, 01:52:00,VALID,918.633,VALID,0,VALID,98.5188,VALID,-0.0679233,VALID,20.4128,VALID,117,VALID,0.975535,
2002-05-14, 01:53:00,VALID,918.637,VALID,0,VALID,98.4222,VALID,-0.0679233,VALID,20.4128,VALID,129,VALID,0.61761,
2002-05-14, 01:54:00,VALID,918.629,VALID,0,VALID,98.3281,VALID,0,VALID,20.3789,VALID,118,VALID,0.700921,
2002-05-14, 01:55:00,VALID,918.629,VALID,0,VALID,98.3039,VALID,0.0169808,VALID,20.3824,VALID,120,VALID,0.640008,
2002-05-14, 01:56:00,VALID,918.623,VALID,0,VALID,98.3777,VALID,0.0169808,VALID,20.3993,VALID,114,VALID,0.994992,
2002-05-14, 01:57:00,VALID,918.603,VALID,0,VALID,98.3421,VALID,0,VALID,20.418,VALID,103,VALID,0.893229,
2002-05-14, 01:58:00,VALID,918.597,VALID,0,VALID,98.3523,VALID,-0.0169808,VALID,20.4371,VALID,99,VALID,0.997997,
2002-05-14, 01:59:00,VALID,918.588,VALID,0,VALID,98.2683,VALID,0,VALID,20.4772,VALID,103,VALID,0.789292,
2002-05-14, 02:00:00,VALID,918.592,VALID,0,VALID,98.178,VALID,0.0339617,VALID,20.4667,VALID,97,VALID,0.773849,
2002-05-14, 02:01:00,VALID,918.581,VALID,0,VALID,98.07,VALID,0.0339617,VALID,20.4697,VALID,93,VALID,0.916233,
2002-05-14, 02:02:00,VALID,918.56,VALID,0,VALID,98.0458,VALID,0,VALID,20.4831,VALID,92,VALID,1.04941,
2002-05-14, 02:03:00,VALID,918.562,VALID,0,VALID,98.0051,VALID,0,VALID,20.4861,VALID,98,VALID,0.871833,
2002-05-14, 02:04:00,VALID,918.546,VALID,0,VALID,98.0013,VALID,0,VALID,20.4995,VALID,97,VALID,0.989515,
2002-05-14, 02:05:00,VALID,918.544,VALID,0,VALID,97.9886,VALID,-0.0169808,VALID,20.5027,VALID,103,VALID,0.900699,
2002-05-14, 02:06:00,VALID,918.525,VALID,0,VALID,98.0089,VALID,0.0169808,VALID,20.538,VALID,92,VALID,0.849451,
2002-05-14, 02:07:00,VALID,918.509,VALID,0,VALID,97.8449,VALID,0.0169808,VALID,20.5316,VALID,94,VALID,0.496795,
2002-05-14, 02:08:00,VALID,918.511,VALID,0,VALID,97.8093,VALID,0,VALID,20.5186,VALID,112,VALID,0.504317,
2002-05-14, 02:09:00,VALID,918.495,VALID,0,VALID,97.8805,VALID,0,VALID,20.5318,VALID,117,VALID,0.88141,
2002-05-14, 02:10:00,VALID,918.48,VALID,0,VALID,97.8741,VALID,-0.0169808,VALID,20.5413,VALID,113,VALID,1.00962,
2002-05-14, 02:11:00,VALID,918.453,VALID,0,VALID,97.8436,VALID,-0.0169808,VALID,20.5539,VALID,108,VALID,1.17188,
2002-05-14, 02:12:00,VALID,918.443,VALID,0,VALID,97.9136,VALID,-0.0169808,VALID,20.5733,VALID,101,VALID,1.32008,
2002-05-14, 02:13:00,VALID,918.409,VALID,0,VALID,97.7304,VALID,0,VALID,20.5997,VALID,94,VALID,1.02919,
2002-05-14, 02:14:00,VALID,918.384,VALID,0,VALID,97.3502,VALID,-0.0339617,VALID,20.5348,VALID,76,VALID,0.745009,
2002-05-14, 02:15:00,VALID,918.375,VALID,0,VALID,97.1074,VALID,0,VALID,20.461,VALID,67,VALID,0.332648,
2002-05-14, 02:16:00,VALID,918.404,VALID,0,VALID,96.9408,VALID,0,VALID,20.3862,VALID,43,VALID,0.224029,
2002-05-14, 02:17:00,VALID,918.411,VALID,0,VALID,97.1862,VALID,-0.0169808,VALID,20.3867,VALID,325,VALID,0.534951,
2002-05-14, 02:18:00,VALID,918.42,VALID,0,VALID,97.4647,VALID,-0.0169808,VALID,20.4147,VALID,302,VALID,0.251028,
2002-05-14, 02:19:00,VALID,918.39,VALID,0,VALID,97.5422,VALID,0,VALID,20.4115,VALID,301,VALID,0.100084,
2002-05-14, 02:20:00,VALID,918.35,VALID,0,VALID,97.2599,VALID,0,VALID,20.3926,VALID,36,VALID,0.433093,
2002-05-14, 02:21:00,VALID,918.324,VALID,0,VALID,97.3108,VALID,0,VALID,20.3541,VALID,57,VALID,0.770765,
2002-05-14, 02:22:00,VALID,918.304,VALID,0,VALID,97.5448,VALID,0,VALID,20.3673,VALID,60,VALID,0.853966,
2002-05-14, 02:23:00,VALID,918.275,VALID,0,VALID,97.6745,VALID,0,VALID,20.3897,VALID,66,VALID,0.834335,
2002-05-14, 02:24:00,VALID,918.244,VALID,0,VALID,97.6033,VALID,0,VALID,20.3703,VALID,74,VALID,0.99379,
2002-05-14, 02:25:00,VALID,918.233,VALID,0,VALID,97.6974,VALID,0,VALID,20.3538,VALID,84,VALID,1.07238,
2002-05-14, 02:26:00,VALID,918.206,VALID,0,VALID,97.6071,VALID,-0.0169808,VALID,20.3315,VALID,90,VALID,0.867188,
2002-05-14, 02:27:00,VALID,918.21,VALID,0,VALID,97.658,VALID,0,VALID,20.2763,VALID,91,VALID,0.817274,
2002-05-14, 02:28:00,VALID,918.197,VALID,0,VALID,97.8106,VALID,0,VALID,20.2634,VALID,95,VALID,0.772382,
2002-05-14, 02:29:00,VALID,918.203,VALID,0,VALID,97.897,VALID,0,VALID,20.2664,VALID,106,VALID,0.80891,
2002-05-14, 02:30:00,VALID,918.199,VALID,0,VALID,97.7419,VALID,0,VALID,20.2276,VALID,122,VALID,0.708676,
2002-05-14, 02:31:00,VALID,918.181,VALID,0,VALID,97.9848,VALID,0,VALID,20.2283,VALID,121,VALID,0.688322,
2002-05-14, 02:32:00,VALID,918.165,VALID,0,VALID,97.6529,VALID,0,VALID,20.1789,VALID,92,VALID,0.841639,
2002-05-14, 02:33:00,VALID,918.146,VALID,0,VALID,97.4342,VALID,-0.0169808,VALID,20.0991,VALID,94,VALID,0.885016,
2002-05-14, 02:34:00,VALID,918.141,VALID,0,VALID,97.864,VALID,0,VALID,20.0859,VALID,113,VALID,1.19593,
2002-05-14, 02:35:00,VALID,918.148,VALID,0,VALID,98.0547,VALID,-0.0169808,VALID,20.1088,VALID,111,VALID,1.21995,
2002-05-14, 02:36:00,VALID,918.169,VALID,0,VALID,98.0852,VALID,0,VALID,20.0921,VALID,106,VALID,1.10617,
2002-05-14, 02:37:00,VALID,918.162,VALID,0,VALID,98.173,VALID,0,VALID,20.066,VALID,113,VALID,1.07292,
2002-05-14, 02:38:00,VALID,918.18,VALID,0,VALID,98.2404,VALID,0.0169808,VALID,20.0695,VALID,110,VALID,0.954504,
2002-05-14, 02:39:00,VALID,918.184,VALID,0,VALID,98.3014,VALID,-0.101885,VALID,20.0487,VALID,116,VALID,0.906661,
2002-05-14, 02:40:00,VALID,918.201,VALID,0,VALID,98.2683,VALID,-0.101885,VALID,20.0255,VALID,96,VALID,0.699436,
2002-05-14, 02:41:00,VALID,918.194,VALID,0,VALID,98.1399,VALID,-0.0849042,VALID,19.9448,VALID,91,VALID,0.871916,
2002-05-14, 02:42:00,VALID,918.195,VALID,0,VALID,98.3395,VALID,-0.0849042,VALID,19.941,VALID,93,VALID,0.905405,
2002-05-14, 02:43:00,VALID,918.191,VALID,0,VALID,98.1679,VALID,-0.101885,VALID,19.9192,VALID,87,VALID,0.796875,
2002-05-14, 02:44:00,VALID,918.159,VALID,0,VALID,98.2747,VALID,-0.101885,VALID,19.8906,VALID,90,VALID,0.871299,
2002-05-14, 02:45:00,VALID,918.129,VALID,0,VALID,98.2887,VALID,-0.0849042,VALID,19.8866,VALID,99,VALID,0.703336,
2002-05-14, 02:46:00,VALID,918.122,VALID,0,VALID,98.2048,VALID,-0.101885,VALID,19.8513,VALID,131,VALID,0.811699,
2002-05-14, 02:47:00,VALID,918.094,VALID,0,VALID,98.1475,VALID,-0.101885,VALID,19.8053,VALID,143,VALID,0.912418,
2002-05-14, 02:48:00,VALID,918.107,VALID,0,VALID,98.2086,VALID,-0.101885,VALID,19.7802,VALID,142,VALID,1.03606,
2002-05-14, 02:49:00,VALID,918.122,VALID,0,VALID,98.3065,VALID,-0.101885,VALID,19.7576,VALID,140,VALID,1.14343,
2002-05-14, 02:50:00,VALID,918.106,VALID,0,VALID,98.2874,VALID,-0.118866,VALID,19.7323,VALID,129,VALID,0.842748,
2002-05-14, 02:51:00,VALID,918.099,VALID,0,VALID,98.3993,VALID,-0.118866,VALID,19.6965,VALID,121,VALID,1.02321,
2002-05-14, 02:52:00,VALID,918.096,VALID,0,VALID,98.8253,VALID,-0.101885,VALID,19.7619,VALID,118,VALID,1.46587,
2002-05-14, 02:53:00,VALID,918.081,VALID,0,VALID,98.9499,VALID,-0.152827,VALID,19.8454,VALID,120,VALID,1.49436,
2002-05-14, 02:54:00,VALID,918.075,VALID,0,VALID,98.9995,VALID,0,VALID,19.9308,VALID,117,VALID,1.59206,
2002-05-14, 02:55:00,VALID,918.071,VALID,0,VALID,99.0122,VALID,0.0169808,VALID,19.9987,VALID,114,VALID,1.73374,
2002-05-14, 02:56:00,VALID,918.057,VALID,0,VALID,98.9575,VALID,0.0169808,VALID,20.0178,VALID,122,VALID,1.51891,
2002-05-14, 02:57:00,VALID,918.048,VALID,0,VALID,98.8507,VALID,0.0169808,VALID,20.0109,VALID,117,VALID,1.55016,
2002-05-14, 02:58:00,VALID,918.045,VALID,0,VALID,98.8431,VALID,0,VALID,20.0668,VALID,110,VALID,1.42715,
2002-05-14, 02:59:00,VALID,918.037,VALID,0,VALID,98.7859,VALID,0,VALID,20.0862,VALID,114,VALID,1.32853,
2002-05-14, 03:00:00,VALID,918.03,VALID,0,VALID,98.7541,VALID,0,VALID,20.1249,VALID,118,VALID,1.08882,
2002-05-14, 03:01:00,VALID,918.034,VALID,0,VALID,98.5811,VALID,0,VALID,20.118,VALID,131,VALID,0.754006,
2002-05-14, 03:02:00,VALID,918.014,VALID,0,VALID,98.4133,VALID,0,VALID,20.0916,VALID,143,VALID,0.810697,
2002-05-14, 03:03:00,VALID,918.012,VALID,0,VALID,98.276,VALID,0,VALID,20.0668,VALID,126,VALID,0.789263,
2002-05-14, 03:04:00,VALID,918.001,VALID,0,VALID,98.2671,VALID,0,VALID,20.0243,VALID,124,VALID,0.980469,
2002-05-14, 03:05:00,VALID,917.978,VALID,0,VALID,98.4108,VALID,0,VALID,20.0439,VALID,119,VALID,0.898643,
2002-05-14, 03:06:00,VALID,917.964,VALID,0,VALID,98.3535,VALID,0.0169808,VALID,20.0342,VALID,124,VALID,0.707465,
2002-05-14, 03:07:00,VALID,917.946,VALID,0,VALID,98.3586,VALID,0,VALID,20.0409,VALID,115,VALID,0.625411,
2002-05-14, 03:08:00,VALID,917.942,VALID,0,VALID,98.3815,VALID,0,VALID,20.0409,VALID,111,VALID,0.943412,
2002-05-14, 03:09:00,VALID,917.931,VALID,0,VALID,98.1984,VALID,0,VALID,20.0213,VALID,104,VALID,0.748355,
2002-05-14, 03:10:00,VALID,917.933,VALID,0,VALID,98.1399,VALID,0.0169808,VALID,19.9798,VALID,109,VALID,0.783923,
2002-05-14, 03:11:00,VALID,917.955,VALID,0,VALID,98.131,VALID,0,VALID,19.9505,VALID,126,VALID,0.65984,
2002-05-14, 03:12:00,VALID,917.967,VALID,0,VALID,98.173,VALID,0,VALID,19.9211,VALID,120,VALID,1.16867,
2002-05-14, 03:13:00,VALID,917.985,VALID,0,VALID,98.3408,VALID,0,VALID,19.9303,VALID,120,VALID,1.24445,
2002-05-14, 03:14:00,VALID,917.983,VALID,0,VALID,98.3065,VALID,0,VALID,19.9637,VALID,119,VALID,1.13181,
2002-05-14, 03:15:00,VALID,917.987,VALID,0,VALID,98.3001,VALID,0,VALID,19.9532,VALID,113,VALID,1.13702,
2002-05-14, 03:16:00,VALID,917.986,VALID,0,VALID,98.3523,VALID,0,VALID,19.9731,VALID,103,VALID,1.22857,
2002-05-14, 03:17:00,VALID,917.981,VALID,0,VALID,98.384,VALID,0.0169808,VALID,20.0181,VALID,87,VALID,1.17073,
2002-05-14, 03:18:00,VALID,917.989,VALID,0,VALID,98.0789,VALID,0,VALID,19.989,VALID,85,VALID,0.971217,
2002-05-14, 03:19:00,VALID,917.99,VALID,0,VALID,98.3065,VALID,0,VALID,20.0054,VALID,111,VALID,1.23546,
2002-05-14, 03:20:00,VALID,918.003,VALID,0,VALID,98.3891,VALID,0.0169808,VALID,20.0603,VALID,111,VALID,1.25655,
2002-05-14, 03:21:00,VALID,917.985,VALID,0,VALID,98.262,VALID,-0.0169808,VALID,20.0829,VALID,113,VALID,1.00232,
2002-05-14, 03:22:00,VALID,917.982,VALID,0,VALID,98.2149,VALID,0,VALID,20.0698,VALID,109,VALID,0.863898,
2002-05-14, 03:23:00,VALID,917.949,VALID,0,VALID,98.1615,VALID,-0.0169808,VALID,20.0636,VALID,106,VALID,0.731291,
2002-05-14, 03:24:00,VALID,917.917,VALID,0,VALID,98.1399,VALID,0,VALID,20.0499,VALID,108,VALID,0.717483,
2002-05-14, 03:25:00,VALID,917.906,VALID,0,VALID,98.089,VALID,0,VALID,20.0474,VALID,110,VALID,0.729768,
2002-05-14, 03:26:00,VALID,917.899,VALID,0,VALID,98.0013,VALID,0,VALID,20.0345,VALID,101,VALID,0.637541,
2002-05-14, 03:27:00,VALID,917.879,VALID,0,VALID,98.0827,VALID,0,VALID,20.0345,VALID,106,VALID,0.710938,
2002-05-14, 03:28:00,VALID,917.868,VALID,0,VALID,98.0509,VALID,-0.0169808,VALID,20.0377,VALID,118,VALID,0.9375,
2002-05-14, 03:29:00,VALID,917.852,VALID,0,VALID,97.9809,VALID,0,VALID,20.0474,VALID,114,VALID,0.778045,
2002-05-14, 03:30:00,VALID,917.846,VALID,0,VALID,97.8716,VALID,0,VALID,20.031,VALID,117,VALID,0.938649,
2002-05-14, 03:31:00,VALID,917.865,VALID,0,VALID,97.8881,VALID,0,VALID,20.0307,VALID,112,VALID,1.11595,
2002-05-14, 03:32:00,VALID,917.882,VALID,0,VALID,97.9784,VALID,0.0339617,VALID,20.0695,VALID,98,VALID,1.03429,
2002-05-14, 03:33:00,VALID,917.889,VALID,0,VALID,98.0445,VALID,0.0169808,VALID,20.1244,VALID,96,VALID,1.11184,
2002-05-14, 03:34:00,VALID,917.878,VALID,0,VALID,98.0852,VALID,-0.0169808,VALID,20.1796,VALID,107,VALID,1.16406,
2002-05-14, 03:35:00,VALID,917.889,VALID,0,VALID,98.1081,VALID,0.0169808,VALID,20.2249,VALID,109,VALID,1.18771,